Location: Rumah Long Bangan
(2.8362°N, 113.7519°E)
Time: 19:38:45
(UTC+00:00)

ATLAS 5 CENTAUR R/B - Pass Details

Date: 24 October 2021
Orbit: 497 x 1159 km, 63.4° (Epoch: 25 November)

Event Time Altitude Azimuth Distance (km) Brightness Sun altitude
Exits shadow 20:12:33 28° 209° (SSW) 1,992 3.9 -29.1°
Drops below altitude 10° 20:16:40 10° 183° (S) 3,060 5.2 -28.1°
Sets 20:19:40 0° 174° (S) 4,007 5.9 -27.3°
